W5MAI Weather Reports


Display with metric or nautical units.
time (UTC)temp
F
wind
direction
speed
MPH
gust
MPH
rain 1hr
in
rain 24hr
in
rain mn
in
humidity
%
barometer
mb
20260906202404 92 12 0.0 4.0 0.00 0.00 0.00 57 1014.4
20260906201329 91 49 2.0 11.0 0.00 0.00 0.00 57 1014.5
20260906195341 92 355 1.0 7.0 0.00 0.00 0.00 58 1014.9
20260906194416 91 57 2.0 11.0 0.00 0.00 0.00 60 1015.0
20260906193341 88 37 1.0 6.0 0.00 0.00 0.00 63 1015.2
20260906192417 88 98 2.0 8.0 0.00 0.00 0.00 62 1015.2
20260906185347 94 141 6.0 10.0 0.00 0.00 0.00 50 1015.3
20260906184421 92 168 2.0 7.0 0.00 0.00 0.00 49 1015.2
20260906181328 92 256 2.0 9.0 0.00 0.00 0.00 51 1015.6
20260906180358 92 131 2.0 8.0 0.00 0.00 0.00 51 1015.8
20260906175416 92 86 1.0 10.0 0.00 0.00 0.00 54 1016.0
20260906172348 90 178 2.0 8.0 0.00 0.00 0.00 57 1016.6
20260906171411 89 153 2.0 10.0 0.00 0.00 0.00 59 1016.7
20260906170333 89 126 3.0 7.0 0.00 0.00 0.00 62 1016.9
20260906165339 89 188 4.0 8.0 0.00 0.00 0.00 62 1017.0
20260906164359 88 222 4.0 7.0 0.00 0.00 0.00 65 1017.0
20260906163323 88 137 5.0 9.0 0.00 0.00 0.00 65 1017.0
20260906162358 88 123 3.0 6.0 0.00 0.00 0.00 65 1016.9
20260906161418 88 159 2.0 7.0 0.00 0.00 0.00 67 1016.9
20260906155338 87 263 2.0 6.0 0.00 0.00 0.00 69 1016.9
20260906154409 86 159 1.0 6.0 0.00 0.00 0.00 71 1016.9
20260906153323 86 245 4.0 8.0 0.00 0.00 0.00 71 1016.9
20260906152358 85 144 2.0 5.0 0.00 0.00 0.00 72 1016.8
20260906151418 85 107 4.0 7.0 0.00 0.00 0.00 72 1016.7
20260906141348 82 210 1.0 4.0 0.00 0.00 0.00 80 1016.5
20260906140408 82 227 1.0 5.0 0.00 0.00 0.00 80 1016.4
20260906135336 82 173 2.0 4.0 0.00 0.00 0.00 81 1016.4
20260906134339 81 178 0.0 1.0 0.00 0.00 0.00 82 1016.3
20260906133356 80 178 0.0 1.0 0.00 0.00 0.00 83 1016.2
20260906132420 79 178 0.0 1.0 0.00 0.00 0.00 85 1016.1
20260906131358 78 178 0.0 0.0 0.00 0.00 0.00 87 1016.0
20260906130414 76 178 0.0 0.0 0.00 0.00 0.00 88 1015.9
20260906125342 75 178 0.0 0.0 0.00 0.00 0.00 88 1015.9
20260906124348 75 178 0.0 0.0 0.00 0.00 0.00 88 1015.6
20260906123353 75 178 0.0 0.0 0.00 0.00 0.00 88 1015.5
20260906122409 75 178 0.0 0.0 0.00 0.00 0.00 88 1015.4
20260906121324 75 178 0.0 2.0 0.00 0.00 0.00 88 1015.4
20260906120353 75 178 0.0 1.0 0.00 0.00 0.00 88 1015.3
20260906115414 75 178 0.0 3.0 0.00 0.00 0.00 88 1015.2
20260906114338 75 178 1.0 4.0 0.00 0.00 0.00 88 1015.1
20260906113339 75 198 2.0 3.0 0.00 0.00 0.00 87 1014.7
20260906112355 75 198 0.0 0.0 0.00 0.00 0.00 87 1014.4
20260906111410 75 198 0.0 0.0 0.00 0.00 0.00 87 1014.2
20260906110330 75 198 0.0 0.0 0.00 0.00 0.00 87 1014.3
20260906105359 75 198 0.0 0.0 0.00 0.00 0.00 87 1014.2
20260906104405 75 198 0.0 0.0 0.00 0.00 0.00 87 1014.2
20260906103333 75 198 0.0 0.0 0.00 0.00 0.00 87 1014.2
20260906102340 75 198 0.0 0.0 0.00 0.00 0.00 87 1014.0
20260906101401 75 198 0.0 0.0 0.00 0.00 0.00 87 1014.0
20260906100331 75 198 0.0 0.0 0.00 0.00 0.00 87 1014.1
20260906095401 75 198 0.0 0.0 0.00 0.00 0.00 87 1013.9
20260906094422 75 198 0.0 0.0 0.00 0.00 0.00 86 1014.0
20260906093331 75 198 0.0 0.0 0.00 0.00 0.00 86 1014.0
20260906092357 75 198 0.0 0.0 0.00 0.00 0.00 85 1014.1
20260906091326 75 198 0.0 0.0 0.00 0.00 0.00 84 1014.3
20260906084356 76 198 0.0 0.0 0.00 0.00 0.00 83 1014.3
20260906083421 77 198 0.0 0.0 0.00 0.00 0.00 83 1014.4
20260906082340 77 198 0.0 0.0 0.00 0.00 0.00 82 1014.4
20260906081417 78 198 0.0 0.0 0.00 0.00 0.00 81 1014.5
20260906080343 78 198 0.0 0.0 0.00 0.00 0.00 80 1014.5
20260906075409 78 198 0.0 0.0 0.00 0.00 0.00 80 1014.8
20260906074334 79 198 0.0 2.0 0.00 0.00 0.00 78 1014.7
20260906073349 79 198 0.0 2.0 0.00 0.00 0.00 78 1014.9
20260906072408 79 198 1.0 4.0 0.00 0.00 0.00 78 1015.0
20260906071328 79 150 1.0 3.0 0.00 0.00 0.00 78 1015.1
20260906070357 80 150 1.0 3.0 0.00 0.00 0.00 77 1015.2
20260906065349 80 150 0.0 1.0 0.00 0.00 0.00 76 1015.3
20260906064334 80 150 0.0 2.0 0.00 0.00 0.00 76 1015.4
20260906063339 81 150 0.0 2.0 0.00 0.00 0.00 75 1015.4
20260906062323 81 150 1.0 4.0 0.00 0.00 0.00 74 1015.4
20260906061338 81 238 0.0 3.0 0.00 0.00 0.00 72 1015.5
20260906060323 82 212 1.0 5.0 0.00 0.00 0.00 72 1015.6
20260906055327 82 192 1.0 6.0 0.00 0.00 0.00 71 1015.5
20260906054337 82 148 3.0 7.0 0.00 0.00 0.00 70 1015.4
20260906053341 82 225 2.0 5.0 0.00 0.00 0.00 70 1015.4
20260906052326 83 156 3.0 8.0 0.00 0.00 0.00 69 1015.5
20260906051338 83 179 2.0 8.0 0.00 0.00 0.00 69 1015.5
20260906050322 83 184 3.0 7.0 0.00 0.00 0.00 69 1015.5
20260906045352 83 169 4.0 10.0 0.00 0.00 0.00 69 1015.7
20260906044324 84 164 4.0 12.0 0.00 0.00 0.00 69 1015.6
20260906043354 84 175 6.0 14.0 0.00 0.00 0.00 68 1015.8
20260906042412 84 202 6.0 12.0 0.00 0.00 0.00 68 1015.8
20260906041323 85 159 8.0 12.0 0.00 0.00 0.00 67 1015.6
20260906040338 85 143 6.0 11.0 0.00 0.00 0.00 67 1015.6
20260906035358 85 204 4.0 9.0 0.00 0.00 0.00 67 1015.5
20260906034327 86 151 4.0 9.0 0.00 0.00 0.00 66 1015.4
20260906033357 86 153 5.0 9.0 0.00 0.00 0.00 65 1015.2
20260906032327 86 147 6.0 11.0 0.00 0.00 0.00 64 1015.1
20260906025403 88 162 6.0 11.0 0.00 0.00 0.00 60 1014.5
20260906024325 88 173 5.0 10.0 0.00 0.00 0.00 57 1014.2
20260906023352 88 148 5.0 8.0 0.00 0.00 0.00 57 1014.0
20260906022421 88 144 2.0 7.0 0.00 0.00 0.00 56 1013.5
20260906021344 88 138 3.0 8.0 0.00 0.00 0.00 55 1013.3
20260906020420 88 111 4.0 8.0 0.00 0.00 0.00 55 1013.2
20260906015325 86 100 2.0 9.0 0.00 0.00 0.00 57 1013.1
20260906012347 89 160 0.0 0.0 0.00 0.00 0.00 54 1012.8
20260906011409 90 160 0.0 0.0 0.00 0.00 0.00 53 1012.8
20260906010323 91 160 0.0 1.0 0.00 0.00 0.00 49 1012.6
20260906005347 92 160 1.0 3.0 0.00 0.00 0.00 48 1012.5
20260906004352 92 174 1.0 6.0 0.00 0.00 0.00 47 1012.5
20260906003355 93 146 4.0 5.0 0.00 0.00 0.00 46 1012.5
20260906002410 94 128 2.0 5.0 0.00 0.00 0.00 44 1012.5
20260906001324 94 88 2.0 7.0 0.00 0.00 0.00 42 1012.5
20260905235337 95 136 4.0 6.0 0.00 0.00 0.00 41 1012.5
20260905234337 95 184 2.0 8.0 0.00 0.00 0.00 42 1012.5
20260905233343 95 153 3.0 7.0 0.00 0.00 0.00 40 1012.5
20260905232413 95 88 1.0 8.0 0.00 0.00 0.00 41 1012.5
20260905231419 95 144 1.0 5.0 0.00 0.00 0.00 41 1012.4
20260905230328 95 96 3.0 7.0 0.00 0.00 0.00 40 1012.2
20260905225345 95 138 3.0 10.0 0.00 0.00 0.00 40 1012.5
20260905224415 95 139 4.0 10.0 0.00 0.00 0.00 42 1012.7
20260905223329 94 115 2.0 9.0 0.00 0.00 0.00 44 1012.6
20260905222401 94 155 3.0 12.0 0.00 0.00 0.00 44 1012.6
20260905221330 95 107 4.0 9.0 0.00 0.00 0.00 43 1012.6
20260905220356 95 125 3.0 12.0 0.00 0.00 0.00 45 1012.8
20260905215324 94 67 3.0 9.0 0.00 0.00 0.00 44 1012.8
20260905211356 94 98 2.0 7.0 0.00 0.00 0.00 46 1012.9
20260905210418 95 168 4.0 11.0 0.00 0.00 0.00 45 1012.9
20260905205341 95 132 2.0 8.0 0.00 0.00 0.00 45 1012.9
20260905204401 94 213 5.0 8.0 0.00 0.00 0.00 46 1013.2
20260905203324 94 173 5.0 9.0 0.00 0.00 0.00 48 1013.5